User: anonymous   Login
Location: Waning Moon II Observatory
(30.3730°N, 89.7620°W)
Time: 21:07:10
(UTC-05:00)
Language:

Cosmos 1825 Rocket - Orbit

View from above orbital plane
View from above orbital plane
View from above satellite
View from above satellite

Ground track
Ground track

The orbit data is extracted from the following two-line orbital elements,

1 17567U 87024B   17081.65846660 +.00000106 +00000-0 +99038-5 0  9996
2 17567 082.5264 280.0098 0017670 271.9637 087.9554 14.83642248623638
Epoch (UTC): 22 March 2017 15:48:11
Eccentricity: 0.0017670
inclination: 82.5264°
perigee height: 605 km
apogee height: 630 km
right ascension of ascending node: 280.0098°
argument of perigee: 271.9637°
revolutions per day: 14.83642248
mean anomaly at epoch: 87.9554°
orbit number at epoch: 62363

The dashed part of the orbit path shows where the satellite is in the earth's shadow,  

DLR